Gumdag

Turkmenistan     39˚12′24″N   54˚35′55″E
temp.,
°C
wind,
m/s
gust,
m/s
humid.,
%
clouds,
%
prec.,
mm/h
press.,
hPa
HPBL,
m
3 december, thu
thu323:00+5˚ene914520 0.0 1028284
02:00+4˚ene914500 0.0 1028262
05:00+3˚ene9134915 0.0 1028262
08:00+2˚ene91349100 0.0 1029257
11:00+4˚ene101345100 0.0 1030333
14:00+6˚ene91241100 0.0 1029366
17:00+6˚ene8114089 0.0 1029416
20:00+5˚ene813423 0.0 1030305
4 december, fri
fri423:00+4˚ene9134130 0.0 1031319
02:00+3˚ene9124272 0.0 1030273
05:00+2˚ene9124371 0.0 1030266
08:00+2˚ene10144413 0.0 1031276
11:00+4˚ene1114407 0.0 1031382
14:00+6˚ene1114360 0.0 1030440
17:00+6˚ene1114350 0.0 1029484
20:00+5˚ene1116370 0.0 1029416
5 december, sat
sat523:00+3˚ene1116450 0.0 1029419
02:00+2˚ene1217470 0.0 1029416
05:00+1˚ene1117470 0.0 1028395
08:00+1˚ene12184918 0.0 1028383
11:00+2˚ene13174514 0.0 1028548
14:00+5˚ene1215380 0.0 1026636
17:00+5˚ene1114380 0.0 1025687
20:00+3˚ne1116380 0.0 1026509
6 december, sun
sun623:00+2˚ene1016430 0.0 1026448
02:00+1˚ene10165022 0.0 1025434
05:00+1˚ene10165115 0.0 1025406
08:00ene11165169 0.0 1026446
11:00+2˚ene12164564 0.0 1026577
14:00+4˚ene11143873 0.0 1026612
17:00+4˚ene10133871 0.0 1026670
20:00+2˚ene10154078 0.0 1027488
7 december, mon
mon723:00+1˚ene9144139 0.0 1028400
02:00ene913410 0.0 1028353
05:00ene813410 0.0 1029330
08:00−1˚ene913400 0.0 1029341
11:00+1˚ene1013350 0.0 1031469
14:00+3˚ene10123311 0.0 1030516
17:00+3˚ene9113415 0.0 1030499
20:00+1˚ene913360 0.0 1031347